| time (UTC) | temp F | wind direction | speed MPH | gust MPH | rain 1hr in | rain 24hr in | rain mn in | humidity % | barometer mb |
| 20260508224712 | 78 | 28 | 3.0 | 8.0 | 0.00 | 0.00 | 0.00 | 23 | 1015.9 |
| 20260508224211 | 77 | 355 | 3.0 | 8.0 | 0.00 | 0.00 | 0.00 | 23 | 1016.0 |
| 20260508223709 | 77 | 348 | 2.0 | 7.0 | 0.00 | 0.00 | 0.00 | 23 | 1016.2 |
| 20260508223209 | 77 | 333 | 3.0 | 6.0 | 0.00 | 0.00 | 0.00 | 23 | 1016.2 |
| 20260508222710 | 77 | 338 | 2.0 | 7.0 | 0.00 | 0.00 | 0.00 | 21 | 1016.4 |
| 20260508222206 | 77 | 65 | 2.0 | 7.0 | 0.00 | 0.00 | 0.00 | 24 | 1016.3 |
| 20260508221707 | 78 | 281 | 3.0 | 7.0 | 0.00 | 0.00 | 0.00 | 24 | 1016.4 |
| 20260508221206 | 78 | 92 | 3.0 | 7.0 | 0.00 | 0.00 | 0.00 | 22 | 1016.4 |
| 20260508220205 | 77 | 80 | 3.0 | 10.0 | 0.00 | 0.00 | 0.00 | 28 | 1016.5 |
| 20260508215705 | 77 | 28 | 3.0 | 10.0 | 0.00 | 0.00 | 0.00 | 25 | 1016.5 |
| 20260508215206 | 77 | 71 | 3.0 | 7.0 | 0.00 | 0.00 | 0.00 | 30 | 1016.7 |
| 20260508213704 | 77 | 281 | 3.0 | 9.0 | 0.00 | 0.00 | 0.00 | 23 | 1016.7 |
| 20260508212701 | 77 | 310 | 2.0 | 4.0 | 0.00 | 0.00 | 0.00 | 28 | 1016.8 |
| 20260508212156 | 76 | 94 | 2.0 | 10.0 | 0.00 | 0.00 | 0.00 | 27 | 1017.0 |
| 20260508210656 | 76 | 34 | 3.0 | 13.0 | 0.00 | 0.00 | 0.00 | 26 | 1017.0 |
| 20260508210158 | 76 | 309 | 3.0 | 13.0 | 0.00 | 0.00 | 0.00 | 26 | 1017.1 |
| 20260508205656 | 76 | 277 | 2.0 | 12.0 | 0.00 | 0.00 | 0.00 | 24 | 1017.2 |
| 20260508205155 | 76 | 34 | 2.0 | 9.0 | 0.00 | 0.00 | 0.00 | 27 | 1017.2 |
| 20260508204658 | 76 | 61 | 3.0 | 11.0 | 0.00 | 0.00 | 0.00 | 28 | 1017.2 |
| 20260508204154 | 76 | 309 | 3.0 | 11.0 | 0.00 | 0.00 | 0.00 | 28 | 1017.3 |
| 20260508203652 | 76 | 45 | 2.0 | 8.0 | 0.00 | 0.00 | 0.00 | 27 | 1017.3 |
| 20260508203154 | 76 | 317 | 2.0 | 8.0 | 0.00 | 0.00 | 0.00 | 27 | 1017.2 |
| 20260508202652 | 76 | 316 | 2.0 | 11.0 | 0.00 | 0.00 | 0.00 | 28 | 1017.3 |
| 20260508202155 | 76 | 279 | 2.0 | 11.0 | 0.00 | 0.00 | 0.00 | 28 | 1017.3 |
| 20260508201652 | 76 | 28 | 2.0 | 6.0 | 0.00 | 0.00 | 0.00 | 26 | 1017.5 |
| 20260508201154 | 76 | 303 | 2.0 | 6.0 | 0.00 | 0.00 | 0.00 | 31 | 1017.4 |
| 20260508200649 | 76 | 311 | 3.0 | 7.0 | 0.00 | 0.00 | 0.00 | 26 | 1017.6 |
| 20260508200148 | 76 | 313 | 3.0 | 9.0 | 0.00 | 0.00 | 0.00 | 24 | 1017.6 |
| 20260508195152 | 76 | 300 | 2.0 | 8.0 | 0.00 | 0.00 | 0.00 | 24 | 1017.6 |
| 20260508194648 | 76 | 309 | 3.0 | 7.0 | 0.00 | 0.00 | 0.00 | 24 | 1017.6 |
| 20260508194148 | 76 | 336 | 3.0 | 7.0 | 0.00 | 0.00 | 0.00 | 24 | 1017.6 |
| 20260508193648 | 76 | 277 | 3.0 | 11.0 | 0.00 | 0.00 | 0.00 | 30 | 1017.6 |
| 20260508193150 | 76 | 287 | 3.0 | 11.0 | 0.00 | 0.00 | 0.00 | 23 | 1017.6 |
| 20260508192646 | 76 | 16 | 3.0 | 10.0 | 0.00 | 0.00 | 0.00 | 29 | 1017.6 |
| 20260508192145 | 76 | 311 | 3.0 | 10.0 | 0.00 | 0.00 | 0.00 | 27 | 1017.5 |
| 20260508191646 | 76 | 74 | 3.0 | 7.0 | 0.00 | 0.00 | 0.00 | 26 | 1017.6 |
| 20260508191149 | 76 | 281 | 3.0 | 9.0 | 0.00 | 0.00 | 0.00 | 26 | 1017.6 |
| 20260508190644 | 75 | 211 | 3.0 | 9.0 | 0.00 | 0.00 | 0.00 | 28 | 1017.6 |
| 20260508190144 | 75 | 109 | 3.0 | 8.0 | 0.00 | 0.00 | 0.00 | 27 | 1017.8 |
| 20260508185647 | 76 | 5 | 3.0 | 8.0 | 0.00 | 0.00 | 0.00 | 25 | 1017.8 |
| 20260508185147 | 76 | 64 | 3.0 | 10.0 | 0.00 | 0.00 | 0.00 | 27 | 1017.9 |
| 20260508184644 | 76 | 332 | 4.0 | 10.0 | 0.00 | 0.00 | 0.00 | 26 | 1018.0 |
| 20260508183639 | 76 | 294 | 3.0 | 10.0 | 0.00 | 0.00 | 0.00 | 25 | 1018.0 |
| 20260508183140 | 76 | 274 | 3.0 | 10.0 | 0.00 | 0.00 | 0.00 | 27 | 1017.9 |
| 20260508182639 | 75 | 56 | 3.0 | 12.0 | 0.00 | 0.00 | 0.00 | 27 | 1017.9 |
| 20260508182138 | 75 | 287 | 4.0 | 12.0 | 0.00 | 0.00 | 0.00 | 27 | 1018.0 |
| 20260508181638 | 75 | 290 | 3.0 | 9.0 | 0.00 | 0.00 | 0.00 | 27 | 1018.0 |
| 20260508180640 | 75 | 298 | 3.0 | 9.0 | 0.00 | 0.00 | 0.00 | 27 | 1018.0 |
| 20260508180138 | 75 | 345 | 3.0 | 11.0 | 0.00 | 0.00 | 0.00 | 27 | 1018.0 |
| 20260508175638 | 76 | 29 | 2.0 | 11.0 | 0.00 | 0.00 | 0.00 | 28 | 1018.0 |
| 20260508175140 | 75 | 61 | 3.0 | 12.0 | 0.00 | 0.00 | 0.00 | 32 | 1018.1 |
| 20260508174632 | 74 | 43 | 3.0 | 12.0 | 0.00 | 0.00 | 0.00 | 28 | 1018.1 |
| 20260508174132 | 74 | 28 | 2.0 | 10.0 | 0.00 | 0.00 | 0.00 | 30 | 1018.2 |
| 20260508173632 | 74 | 44 | 2.0 | 7.0 | 0.00 | 0.00 | 0.00 | 31 | 1018.3 |
| 20260508173135 | 73 | 278 | 2.0 | 7.0 | 0.00 | 0.00 | 0.00 | 31 | 1018.4 |
| 20260508172633 | 74 | 270 | 2.0 | 7.0 | 0.00 | 0.00 | 0.00 | 30 | 1018.4 |
| 20260508172134 | 74 | 294 | 3.0 | 8.0 | 0.00 | 0.00 | 0.00 | 31 | 1018.4 |
| 20260508171132 | 75 | 285 | 2.0 | 6.0 | 0.00 | 0.00 | 0.00 | 35 | 1018.4 |
| 20260508170632 | 75 | 300 | 3.0 | 9.0 | 0.00 | 0.00 | 0.00 | 32 | 1018.4 |
| 20260508170133 | 75 | 43 | 2.0 | 9.0 | 0.00 | 0.00 | 0.00 | 32 | 1018.3 |
| 20260508165631 | 74 | 52 | 2.0 | 9.0 | 0.00 | 0.00 | 0.00 | 33 | 1018.3 |
| 20260508165131 | 74 | 287 | 2.0 | 9.0 | 0.00 | 0.00 | 0.00 | 34 | 1018.3 |
| 20260508164633 | 74 | 60 | 2.0 | 6.0 | 0.00 | 0.00 | 0.00 | 32 | 1018.3 |
| 20260508164129 | 74 | 50 | 2.0 | 5.0 | 0.00 | 0.00 | 0.00 | 32 | 1018.2 |
| 20260508163631 | 74 | 49 | 1.0 | 4.0 | 0.00 | 0.00 | 0.00 | 34 | 1018.3 |
| 20260508163130 | 74 | 49 | 1.0 | 4.0 | 0.00 | 0.00 | 0.00 | 34 | 1018.2 |
| 20260508162628 | 73 | 62 | 1.0 | 4.0 | 0.00 | 0.00 | 0.00 | 38 | 1018.2 |
| 20260508162126 | 73 | 49 | 2.0 | 6.0 | 0.00 | 0.00 | 0.00 | 36 | 1018.1 |
| 20260508161625 | 72 | 49 | 2.0 | 6.0 | 0.00 | 0.00 | 0.00 | 34 | 1018.2 |
| 20260508161125 | 72 | 69 | 2.0 | 5.0 | 0.00 | 0.00 | 0.00 | 35 | 1018.2 |
| 20260508160625 | 71 | 92 | 1.0 | 4.0 | 0.00 | 0.00 | 0.00 | 35 | 1018.1 |
| 20260508160121 | 71 | 98 | 1.0 | 4.0 | 0.00 | 0.00 | 0.00 | 38 | 1018.1 |
| 20260508154616 | 68 | 132 | 0.0 | 2.0 | 0.00 | 0.00 | 0.00 | 40 | 1018.0 |
| 20260508154118 | 68 | 132 | 0.0 | 2.0 | 0.00 | 0.00 | 0.00 | 44 | 1018.1 |
| 20260508153617 | 67 | 132 | 1.0 | 3.0 | 0.00 | 0.00 | 0.00 | 42 | 1018.0 |
| 20260508153114 | 67 | 132 | 1.0 | 3.0 | 0.00 | 0.00 | 0.00 | 42 | 1018.1 |
| 20260508152610 | 65 | 132 | 1.0 | 3.0 | 0.00 | 0.00 | 0.00 | 46 | 1018.0 |
| 20260508152112 | 65 | 132 | 1.0 | 3.0 | 0.00 | 0.00 | 0.00 | 49 | 1018.0 |
| 20260508151111 | 63 | 132 | 1.0 | 3.0 | 0.00 | 0.00 | 0.00 | 50 | 1018.0 |
| 20260508150607 | 62 | 132 | 1.0 | 3.0 | 0.00 | 0.00 | 0.00 | 50 | 1017.9 |
| 20260508150111 | 62 | 132 | 1.0 | 4.0 | 0.00 | 0.00 | 0.00 | 53 | 1017.9 |
| 20260508145609 | 61 | 133 | 1.0 | 4.0 | 0.00 | 0.00 | 0.00 | 54 | 1017.9 |
| 20260508145108 | 60 | 136 | 1.0 | 4.0 | 0.00 | 0.00 | 0.00 | 54 | 1017.8 |
| 20260508144604 | 59 | 136 | 1.0 | 4.0 | 0.00 | 0.00 | 0.00 | 55 | 1017.8 |
| 20260508144106 | 59 | 132 | 1.0 | 4.0 | 0.00 | 0.00 | 0.00 | 56 | 1017.6 |
| 20260508143605 | 58 | 132 | 1.0 | 3.0 | 0.00 | 0.00 | 0.00 | 56 | 1017.8 |
| 20260508143104 | 57 | 132 | 1.0 | 3.0 | 0.00 | 0.00 | 0.00 | 57 | 1017.8 |
| 20260508142606 | 56 | 128 | 1.0 | 3.0 | 0.00 | 0.00 | 0.00 | 58 | 1017.6 |
| 20260508142103 | 55 | 128 | 1.0 | 3.0 | 0.00 | 0.00 | 0.00 | 59 | 1017.6 |
| 20260508141548 | 54 | 127 | 1.0 | 3.0 | 0.00 | 0.00 | 0.00 | 61 | 1017.5 |
| 20260508141049 | 53 | 127 | 1.0 | 4.0 | 0.00 | 0.00 | 0.00 | 62 | 1017.5 |
| 20260508140548 | 52 | 124 | 1.0 | 4.0 | 0.00 | 0.00 | 0.00 | 64 | 1017.5 |
| 20260508140047 | 52 | 108 | 0.0 | 3.0 | 0.00 | 0.00 | 0.00 | 65 | 1017.4 |
| 20260508135548 | 51 | 88 | 0.0 | 2.0 | 0.00 | 0.00 | 0.00 | 66 | 1017.5 |
| 20260508135045 | 51 | 88 | 0.0 | 0.0 | 0.00 | 0.00 | 0.00 | 66 | 1017.4 |
| 20260508134547 | 50 | 88 | 0.0 | 0.0 | 0.00 | 0.00 | 0.00 | 66 | 1017.3 |
| 20260508134046 | 50 | 88 | 0.0 | 2.0 | 0.00 | 0.00 | 0.00 | 67 | 1017.2 |
| 20260508133545 | 49 | 88 | 0.0 | 2.0 | 0.00 | 0.00 | 0.00 | 67 | 1017.2 |
| 20260508133045 | 49 | 88 | 0.0 | 1.0 | 0.00 | 0.00 | 0.00 | 67 | 1017.2 |
| 20260508132543 | 49 | 88 | 0.0 | 0.0 | 0.00 | 0.00 | 0.00 | 67 | 1017.1 |
| 20260508132043 | 48 | 88 | 0.0 | 0.0 | 0.00 | 0.00 | 0.00 | 66 | 1017.1 |
| 20260508131537 | 48 | 88 | 0.0 | 0.0 | 0.00 | 0.00 | 0.00 | 66 | 1017.1 |
| 20260508131038 | 48 | 88 | 0.0 | 0.0 | 0.00 | 0.00 | 0.00 | 66 | 1017.1 |
| 20260508130540 | 48 | 88 | 0.0 | 0.0 | 0.00 | 0.00 | 0.00 | 65 | 1017.0 |
| 20260508130041 | 48 | 88 | 0.0 | 1.0 | 0.00 | 0.00 | 0.00 | 65 | 1016.8 |
| 20260508125540 | 48 | 88 | 0.0 | 1.0 | 0.00 | 0.00 | 0.00 | 65 | 1016.8 |
| 20260508125036 | 48 | 88 | 0.0 | 1.0 | 0.00 | 0.00 | 0.00 | 65 | 1016.8 |
| 20260508124036 | 48 | 88 | 0.0 | 0.0 | 0.00 | 0.00 | 0.00 | 64 | 1016.7 |
| 20260508123538 | 48 | 88 | 0.0 | 0.0 | 0.00 | 0.00 | 0.00 | 63 | 1016.7 |
| 20260508123037 | 48 | 88 | 0.0 | 0.0 | 0.00 | 0.00 | 0.00 | 63 | 1016.6 |
| 20260508122041 | 48 | 88 | 0.0 | 0.0 | 0.00 | 0.00 | 0.00 | 63 | 1016.5 |
| 20260508121538 | 48 | 88 | 0.0 | 0.0 | 0.00 | 0.00 | 0.00 | 63 | 1016.5 |
| 20260508121038 | 49 | 88 | 0.0 | 0.0 | 0.00 | 0.00 | 0.00 | 62 | 1016.5 |
| 20260508120537 | 49 | 88 | 0.0 | 0.0 | 0.00 | 0.00 | 0.00 | 62 | 1016.5 |
| 20260508120036 | 49 | 88 | 0.0 | 3.0 | 0.00 | 0.00 | 0.00 | 62 | 1016.5 |
| 20260508115533 | 49 | 88 | 0.0 | 3.0 | 0.00 | 0.00 | 0.00 | 62 | 1016.5 |
| 20260508115033 | 49 | 88 | 0.0 | 2.0 | 0.00 | 0.00 | 0.00 | 62 | 1016.5 |
| 20260508114530 | 49 | 88 | 0.0 | 0.0 | 0.00 | 0.00 | 0.00 | 62 | 1016.4 |
| 20260508114032 | 49 | 88 | 0.0 | 0.0 | 0.00 | 0.00 | 0.00 | 62 | 1016.4 |
| 20260508113033 | 49 | 88 | 0.0 | 0.0 | 0.00 | 0.00 | 0.00 | 61 | 1016.4 |
| 20260508112529 | 49 | 88 | 0.0 | 0.0 | 0.00 | 0.00 | 0.00 | 61 | 1016.3 |
| 20260508111526 | 49 | 88 | 0.0 | 2.0 | 0.00 | 0.00 | 0.00 | 61 | 1016.4 |
| 20260508111026 | 49 | 88 | 0.0 | 0.0 | 0.00 | 0.00 | 0.00 | 61 | 1016.3 |
| 20260508110521 | 49 | 88 | 0.0 | 0.0 | 0.00 | 0.00 | 0.00 | 61 | 1016.3 |
| 20260508110022 | 49 | 88 | 0.0 | 0.0 | 0.00 | 0.00 | 0.00 | 61 | 1016.3 |
| 20260508105512 | 50 | 88 | 0.0 | 0.0 | 0.00 | 0.00 | 0.00 | 61 | 1016.3 |
| 20260508105013 | 50 | 88 | 0.0 | 0.0 | 0.00 | 0.00 | 0.00 | 62 | 1016.2 |
| 20260508104511 | 50 | 88 | 0.0 | 0.0 | 0.00 | 0.00 | 0.00 | 62 | 1016.2 |
| 20260508104011 | 50 | 88 | 0.0 | 0.0 | 0.00 | 0.00 | 0.00 | 61 | 1016.0 |
| 20260508103011 | 50 | 88 | 0.0 | 0.0 | 0.00 | 0.00 | 0.00 | 61 | 1016.0 |
| 20260508102508 | 50 | 88 | 0.0 | 0.0 | 0.00 | 0.00 | 0.00 | 61 | 1016.0 |
| 20260508102006 | 50 | 88 | 0.0 | 0.0 | 0.00 | 0.00 | 0.00 | 62 | 1016.2 |
| 20260508101510 | 50 | 88 | 0.0 | 0.0 | 0.00 | 0.00 | 0.00 | 62 | 1016.0 |
| 20260508100004 | 50 | 88 | 0.0 | 0.0 | 0.00 | 0.00 | 0.00 | 61 | 1016.0 |
| 20260508095504 | 50 | 88 | 0.0 | 0.0 | 0.00 | 0.00 | 0.00 | 61 | 1016.0 |
| 20260508095000 | 51 | 88 | 0.0 | 0.0 | 0.00 | 0.00 | 0.00 | 60 | 1015.9 |
| 20260508094000 | 51 | 88 | 0.0 | 0.0 | 0.00 | 0.00 | 0.00 | 59 | 1016.0 |
| 20260508092456 | 52 | 88 | 0.0 | 1.0 | 0.00 | 0.00 | 0.00 | 59 | 1015.8 |
| 20260508091955 | 52 | 88 | 0.0 | 0.0 | 0.00 | 0.00 | 0.00 | 58 | 1015.8 |
| 20260508091457 | 52 | 88 | 0.0 | 0.0 | 0.00 | 0.00 | 0.00 | 57 | 1015.8 |
| 20260508090954 | 53 | 88 | 0.0 | 0.0 | 0.00 | 0.00 | 0.00 | 56 | 1015.9 |
| 20260508090452 | 53 | 88 | 0.0 | 0.0 | 0.00 | 0.00 | 0.00 | 56 | 1015.8 |
| 20260508085949 | 53 | 88 | 0.0 | 0.0 | 0.00 | 0.00 | 0.00 | 55 | 1015.8 |
| 20260508085449 | 54 | 88 | 0.0 | 0.0 | 0.00 | 0.00 | 0.00 | 55 | 1015.8 |
| 20260508083946 | 54 | 88 | 0.0 | 1.0 | 0.00 | 0.00 | 0.00 | 53 | 1015.9 |
| 20260508083447 | 55 | 88 | 0.0 | 1.0 | 0.00 | 0.00 | 0.00 | 53 | 1015.9 |
| 20260508082940 | 55 | 88 | 0.0 | 2.0 | 0.00 | 0.00 | 0.00 | 52 | 1015.8 |
| 20260508082439 | 54 | 88 | 1.0 | 2.0 | 0.00 | 0.00 | 0.00 | 52 | 1015.8 |
| 20260508081939 | 54 | 88 | 1.0 | 2.0 | 0.00 | 0.00 | 0.00 | 52 | 1015.8 |
| 20260508081439 | 54 | 88 | 1.0 | 2.0 | 0.00 | 0.00 | 0.00 | 52 | 1015.7 |
| 20260508080939 | 54 | 88 | 1.0 | 2.0 | 0.00 | 0.00 | 0.00 | 53 | 1015.7 |
| 20260508080437 | 54 | 88 | 0.0 | 2.0 | 0.00 | 0.00 | 0.00 | 53 | 1015.7 |
| 20260508075938 | 53 | 88 | 0.0 | 2.0 | 0.00 | 0.00 | 0.00 | 54 | 1015.7 |
| 20260508074934 | 53 | 88 | 0.0 | 2.0 | 0.00 | 0.00 | 0.00 | 54 | 1015.7 |
| 20260508074433 | 53 | 88 | 0.0 | 2.0 | 0.00 | 0.00 | 0.00 | 55 | 1015.7 |
| 20260508073431 | 53 | 88 | 0.0 | 1.0 | 0.00 | 0.00 | 0.00 | 55 | 1015.7 |
| 20260508072932 | 53 | 88 | 0.0 | 1.0 | 0.00 | 0.00 | 0.00 | 56 | 1015.7 |
| 20260508072429 | 53 | 88 | 0.0 | 1.0 | 0.00 | 0.00 | 0.00 | 56 | 1015.7 |
| 20260508071931 | 53 | 88 | 0.0 | 0.0 | 0.00 | 0.00 | 0.00 | 55 | 1015.7 |
| 20260508070424 | 54 | 88 | 0.0 | 0.0 | 0.00 | 0.00 | 0.00 | 54 | 1015.8 |
| 20260508065923 | 54 | 88 | 0.0 | 1.0 | 0.00 | 0.00 | 0.00 | 54 | 1015.8 |
| 20260508065418 | 54 | 88 | 0.0 | 1.0 | 0.00 | 0.00 | 0.00 | 53 | 1015.8 |
| 20260508064916 | 55 | 88 | 0.0 | 0.0 | 0.00 | 0.00 | 0.00 | 52 | 1015.9 |
| 20260508063918 | 55 | 88 | 0.0 | 0.0 | 0.00 | 0.00 | 0.00 | 51 | 1015.6 |
| 20260508063416 | 55 | 88 | 0.0 | 0.0 | 0.00 | 0.00 | 0.00 | 51 | 1015.7 |
| 20260508062918 | 55 | 88 | 0.0 | 0.0 | 0.00 | 0.00 | 0.00 | 51 | 1015.7 |
| 20260508062416 | 56 | 88 | 0.0 | 0.0 | 0.00 | 0.00 | 0.00 | 51 | 1015.7 |
| 20260508061913 | 56 | 88 | 0.0 | 0.0 | 0.00 | 0.00 | 0.00 | 51 | 1015.6 |
| 20260508061411 | 56 | 88 | 0.0 | 0.0 | 0.00 | 0.00 | 0.00 | 51 | 1015.7 |
| 20260508060912 | 56 | 88 | 0.0 | 0.0 | 0.00 | 0.00 | 0.00 | 50 | 1015.6 |
| 20260508060410 | 57 | 88 | 0.0 | 0.0 | 0.00 | 0.00 | 0.00 | 50 | 1015.5 |
| 20260508055909 | 57 | 88 | 0.0 | 0.0 | 0.00 | 0.00 | 0.00 | 49 | 1015.5 |
| 20260508055410 | 57 | 88 | 0.0 | 0.0 | 0.00 | 0.00 | 0.00 | 49 | 1015.4 |
| 20260508054410 | 58 | 88 | 0.0 | 0.0 | 0.00 | 0.00 | 0.00 | 47 | 1015.4 |
| 20260508053911 | 58 | 88 | 0.0 | 0.0 | 0.00 | 0.00 | 0.00 | 47 | 1015.4 |
| 20260508053407 | 59 | 88 | 0.0 | 0.0 | 0.00 | 0.00 | 0.00 | 47 | 1015.4 |
| 20260508052907 | 59 | 88 | 0.0 | 0.0 | 0.00 | 0.00 | 0.00 | 45 | 1015.4 |
| 20260508052406 | 59 | 88 | 0.0 | 0.0 | 0.00 | 0.00 | 0.00 | 45 | 1015.2 |
| 20260508051905 | 59 | 88 | 0.0 | 0.0 | 0.00 | 0.00 | 0.00 | 44 | 1015.1 |
| 20260508051405 | 59 | 88 | 0.0 | 0.0 | 0.00 | 0.00 | 0.00 | 44 | 1015.1 |
| 20260508050903 | 60 | 88 | 0.0 | 1.0 | 0.00 | 0.00 | 0.00 | 44 | 1015.1 |
| 20260508050405 | 60 | 88 | 0.0 | 1.0 | 0.00 | 0.00 | 0.00 | 44 | 1015.1 |
| 20260508045904 | 60 | 88 | 0.0 | 1.0 | 0.00 | 0.00 | 0.00 | 44 | 1015.2 |
| 20260508045403 | 60 | 88 | 0.0 | 1.0 | 0.00 | 0.00 | 0.00 | 44 | 1015.1 |
| 20260508044904 | 60 | 88 | 0.0 | 0.0 | 0.00 | 0.00 | 0.00 | 46 | 1015.1 |
| 20260508044401 | 60 | 88 | 0.0 | 0.0 | 0.00 | 0.00 | 0.00 | 45 | 1015.0 |
| 20260508043903 | 60 | 88 | 0.0 | 0.0 | 0.00 | 0.00 | 0.00 | 46 | 1015.2 |
| 20260508043405 | 60 | 88 | 0.0 | 0.0 | 0.00 | 0.00 | 0.00 | 45 | 1015.2 |
| 20260508042904 | 60 | 88 | 0.0 | 0.0 | 0.00 | 0.00 | 0.00 | 43 | 1015.2 |
| 20260508042404 | 61 | 88 | 0.0 | 0.0 | 0.00 | 0.00 | 0.00 | 44 | 1015.1 |
| 20260508041904 | 61 | 88 | 0.0 | 0.0 | 0.00 | 0.00 | 0.00 | 44 | 1015.2 |
| 20260508041408 | 61 | 88 | 0.0 | 0.0 | 0.00 | 0.00 | 0.00 | 44 | 1015.2 |
| 20260508040907 | 62 | 88 | 0.0 | 0.0 | 0.00 | 0.00 | 0.00 | 44 | 1015.2 |
| 20260508040407 | 62 | 88 | 0.0 | 0.0 | 0.00 | 0.00 | 0.00 | 44 | 1015.2 |
| 20260508035904 | 62 | 88 | 0.0 | 0.0 | 0.00 | 0.00 | 0.00 | 43 | 1015.1 |
| 20260508035405 | 62 | 88 | 0.0 | 1.0 | 0.00 | 0.00 | 0.00 | 42 | 1015.1 |
| 20260508034900 | 62 | 88 | 0.0 | 1.0 | 0.00 | 0.00 | 0.00 | 42 | 1014.9 |
| 20260508034401 | 62 | 88 | 0.0 | 0.0 | 0.00 | 0.00 | 0.00 | 41 | 1015.0 |
| 20260508033853 | 62 | 88 | 0.0 | 1.0 | 0.00 | 0.00 | 0.00 | 41 | 1014.9 |
| 20260508033347 | 63 | 88 | 0.0 | 2.0 | 0.00 | 0.00 | 0.00 | 40 | 1014.9 |
| 20260508032346 | 63 | 88 | 0.0 | 1.0 | 0.00 | 0.00 | 0.00 | 41 | 1014.8 |
| 20260508031841 | 64 | 88 | 0.0 | 0.0 | 0.00 | 0.00 | 0.00 | 43 | 1014.8 |
| 20260508031340 | 64 | 88 | 0.0 | 0.0 | 0.00 | 0.00 | 0.00 | 39 | 1014.7 |
| 20260508030839 | 65 | 88 | 0.0 | 0.0 | 0.00 | 0.00 | 0.00 | 40 | 1014.7 |
| 20260508030346 | 65 | 88 | 0.0 | 0.0 | 0.00 | 0.00 | 0.00 | 40 | 1014.6 |
| 20260508025844 | 66 | 88 | 0.0 | 0.0 | 0.00 | 0.00 | 0.00 | 39 | 1014.6 |
| 20260508025343 | 66 | 88 | 0.0 | 0.0 | 0.00 | 0.00 | 0.00 | 38 | 1014.6 |
| 20260508024334 | 68 | 88 | 0.0 | 0.0 | 0.00 | 0.00 | 0.00 | 35 | 1014.6 |
| 20260508023828 | 68 | 88 | 0.0 | 0.0 | 0.00 | 0.00 | 0.00 | 35 | 1014.4 |
| 20260508022818 | 70 | 88 | 0.0 | 0.0 | 0.00 | 0.00 | 0.00 | 34 | 1014.4 |
| 20260508022314 | 71 | 88 | 0.0 | 0.0 | 0.00 | 0.00 | 0.00 | 33 | 1014.4 |
| 20260508021812 | 71 | 88 | 0.0 | 0.0 | 0.00 | 0.00 | 0.00 | 32 | 1014.3 |
| 20260508020818 | 72 | 88 | 0.0 | 0.0 | 0.00 | 0.00 | 0.00 | 31 | 1014.3 |
| 20260508020313 | 73 | 88 | 0.0 | 0.0 | 0.00 | 0.00 | 0.00 | 29 | 1014.3 |
| 20260508015309 | 73 | 88 | 0.0 | 2.0 | 0.00 | 0.00 | 0.00 | 28 | 1014.2 |
| 20260508014811 | 73 | 88 | 0.0 | 2.0 | 0.00 | 0.00 | 0.00 | 28 | 1014.2 |
| 20260508014310 | 73 | 88 | 1.0 | 4.0 | 0.00 | 0.00 | 0.00 | 27 | 1014.3 |
| 20260508013809 | 74 | 88 | 2.0 | 4.0 | 0.00 | 0.00 | 0.00 | 28 | 1014.3 |
| 20260508013309 | 74 | 87 | 1.0 | 4.0 | 0.00 | 0.00 | 0.00 | 28 | 1014.2 |
| 20260508012805 | 74 | 85 | 1.0 | 3.0 | 0.00 | 0.00 | 0.00 | 27 | 1014.2 |
| 20260508012307 | 74 | 69 | 1.0 | 3.0 | 0.00 | 0.00 | 0.00 | 26 | 1014.3 |
| 20260508011802 | 74 | 68 | 0.0 | 3.0 | 0.00 | 0.00 | 0.00 | 27 | 1014.3 |
| 20260508010802 | 74 | 55 | 1.0 | 3.0 | 0.00 | 0.00 | 0.00 | 27 | 1014.2 |
| 20260508010302 | 74 | 30 | 0.0 | 2.0 | 0.00 | 0.00 | 0.00 | 26 | 1014.2 |
| 20260508005802 | 73 | 30 | 0.0 | 2.0 | 0.00 | 0.00 | 0.00 | 26 | 1014.3 |
| 20260508005300 | 73 | 30 | 0.0 | 2.0 | 0.00 | 0.00 | 0.00 | 27 | 1014.3 |
| 20260508004803 | 73 | 30 | 0.0 | 2.0 | 0.00 | 0.00 | 0.00 | 27 | 1014.4 |
| 20260508004300 | 73 | 30 | 0.0 | 2.0 | 0.00 | 0.00 | 0.00 | 28 | 1014.6 |
| 20260508003758 | 73 | 30 | 0.0 | 3.0 | 0.00 | 0.00 | 0.00 | 26 | 1014.6 |
| 20260508002754 | 74 | 27 | 0.0 | 3.0 | 0.00 | 0.00 | 0.00 | 27 | 1014.6 |
| 20260508002255 | 74 | 27 | 1.0 | 4.0 | 0.00 | 0.00 | 0.00 | 26 | 1014.6 |
| 20260508001755 | 74 | 26 | 1.0 | 6.0 | 0.00 | 0.00 | 0.00 | 27 | 1014.7 |
| 20260508001253 | 74 | 44 | 1.0 | 6.0 | 0.00 | 0.00 | 0.00 | 26 | 1014.6 |
| 20260508000751 | 75 | 50 | 1.0 | 6.0 | 0.00 | 0.00 | 0.00 | 25 | 1014.6 |
| 20260508000253 | 75 | 27 | 1.0 | 6.0 | 0.00 | 0.00 | 0.00 | 25 | 1014.6 |
| 20260507235750 | 75 | 61 | 1.0 | 3.0 | 0.00 | 0.00 | 0.00 | 25 | 1014.7 |
| 20260507235251 | 75 | 37 | 1.0 | 4.0 | 0.00 | 0.00 | 0.00 | 26 | 1014.7 |
| 20260507234751 | 75 | 37 | 1.0 | 4.0 | 0.00 | 0.00 | 0.00 | 26 | 1014.8 |
| 20260507234251 | 75 | 46 | 1.0 | 4.0 | 0.00 | 0.00 | 0.00 | 29 | 1014.8 |
| 20260507233752 | 75 | 46 | 1.0 | 5.0 | 0.00 | 0.00 | 0.00 | 24 | 1014.9 |
| 20260507233251 | 76 | 38 | 1.0 | 5.0 | 0.00 | 0.00 | 0.00 | 25 | 1015.0 |
| 20260507232750 | 76 | 56 | 1.0 | 3.0 | 0.00 | 0.00 | 0.00 | 26 | 1014.9 |
| 20260507232249 | 76 | 55 | 1.0 | 4.0 | 0.00 | 0.00 | 0.00 | 24 | 1015.0 |
| 20260507231748 | 75 | 0 | 1.0 | 4.0 | 0.00 | 0.00 | 0.00 | 27 | 1015.1 |
| 20260507231247 | 75 | 57 | 1.0 | 4.0 | 0.00 | 0.00 | 0.00 | 26 | 1015.2 |
| 20260507230747 | 76 | 313 | 1.0 | 5.0 | 0.00 | 0.00 | 0.00 | 26 | 1015.2 |
| 20260507230249 | 76 | 73 | 2.0 | 5.0 | 0.00 | 0.00 | 0.00 | 25 | 1015.4 |
| 20260507225746 | 76 | 49 | 2.0 | 6.0 | 0.00 | 0.00 | 0.00 | 26 | 1015.4 |